BKPRLATI

Guest
Details From BKPR - Pristina Intl
To LATI - Tirana Rinas
Flight Number -
Tags generated
Created
Modified
Stats Distance 91 nm / 169 km
Max Altitude 0 ft / 0 m
Waypoints 3
Social Downloads 2
Likes 0
Share VATSIM

Download

Looking for another format? Having issues loading an existing format? Contact us
Advertisement - Login to hide

Notes

Basic altitude profile: - Ascent Rate: 2500ft/min - Ascent Speed: 250kts - Cruise Altitude: 35000ft - Cruise Speed: 420kts - Descent Rate: 1500ft/min - Descent Speed: 250kts Options: - Use NATs: yes - Use PACOTS: yes - Use low airways: yes - Use high airways: yes

Route

BKPR TRN LATI

ID Type Via Altitude Latitude Longitude Leg Dist Tot Dist Heading (true) Name
O BKPR APT - 0 ft / 0 m 42.57453˚ 21.03568˚ - 0 nm - Pristina Intl
TRN VOR - 0 ft / 0 m 41.41612˚ 19.71819˚ 91 nm 91 nm 221° / 220° TIRANA VOR-DME
O LATI APT - 0 ft / 0 m 41.41473˚ 19.72057˚ 0 nm 91 nm 128° / 128° Tirana Rinas

Altitude Profile

Advertisement - Login to hide

BKPR

Details ICAO BKPR
Name Pristina Intl
Region Kosovo
Timezone Europe/Belgrade (UTC+2.0)
Stats Elevation 1,789 ft / 545 m (AMSL)
Location 42.574531° 21.035685°
Runways 1
Magnetic Variation 4.597° E

METAR

BKPR 211730Z 11008KT 9999 VCTS FEW030CB SCT040 19/12 Q1015 NOSIG

Decode

TAF

TAF BKPR 211130Z 2112/2212 16008KT 9999 SCT040 BKN080 TEMPO 2112/2119 3000 TSRA SCT025CB TEMPO 2203/2206 3000 BR

Decode

Departure Runways

ID Width Length Bearing (true) Bearing (mag) Surface Threshold Offset Overrun Length
17 148 ft / 45 m 8,175 ft / 2,492 m 175.71° 171.11° Asphalt 0 ft / 0 m 98 ft / 30 m
35 148 ft / 45 m 8,175 ft / 2,492 m 355.71° 351.11° Asphalt 0 ft / 0 m 98 ft / 30 m

LATI

Details ICAO LATI (TIA)
Name Tirana Rinas
Region Albania
Timezone Europe/Tirane (UTC+2.0)
Stats Elevation 126 ft / 38 m (AMSL)
Location 41.414732° 19.720569°
Runways 1
Magnetic Variation 4.277° E

METAR

LATI 211720Z 15006KT 9999 FEW040CB SCT059 BKN092 23/14 Q1012 NOSIG

Decode

TAF

TAF LATI 211100Z 2112/2212 VRB05KT 9999 SCT040 TX29/2112Z TN17/2203Z TEMPO 212/212 -TSRA SCT025CB BKN050 PROB40 TEMPO 2113/2119 VRB05G20KT 5000 TSRA

Decode

Destination Runways

ID Width Length Bearing (true) Bearing (mag) Surface Threshold Offset Overrun Length
18 148 ft / 45 m 8,984 ft / 2,738 m 174.31° 170.03° Asphalt 500 ft / 152 m 0 ft / 0 m
36 148 ft / 45 m 8,984 ft / 2,738 m 354.31° 350.03° Asphalt 500 ft / 152 m 0 ft / 0 m

Popular Alternatives